Miscellaneous Local Product
Issued by NWS North Platte, NE

Home | Current Version | Previous Version | Text Only | Print | Product List | Glossary On
Versions: 1 2 3 4 5 6 7 8 9 10 11 12 13 14 15 16 17 18 19 20 21 22 23 24 25 26 27 28 29 30 31 32 33 34 35 36 37 38 39 40 41 42 43 44 45 46 47 48 49 50
000
AXUS43 KLBF 260410
MISLBF


WESTERN AND NORTH CENTRAL NEBRASKA HOURLY WEATHER ROUNDUP
NATIONAL WEATHER SERVICE NORTH PLATTE NE
1000 PM CST TUE NOV 25 2014

***STATIONS NOT REPORTING VARIABLES SUCH AS SKY/WEATHER OR
PRESSURE ARE PROVIDED BY THE NEBRASKA DEPARTMENT OF
ROADS...RAWS...AND APRS NETWORKS...AND ARE NOT UNDER
NATIONAL WEATHER SERVICE QUALITY CONTROL***

...OBSERVATIONS IN AND NEAR THE EASTERN PANHANDLE OF NEBRASKA...

CITY           SKY/WX    TMP DP  RH WIND       PRES   REMARKS
PINE RIDGE     CLOUDY    34  27  75 NW8       29.94R WCI  27
CHADRON        CLOUDY    45  26  47 NW23      29.99R
ALLIANCE       CLOUDY    35  24  64 NW22G30   29.95R WCI  23
SIDNEY         LGT SNOW  32  30  92 NW15      30.01R FOG     WCI  22
WHITECLAY        N/A     33  25  71 W18         N/A  WCI  22
CRESCENT LAKE    N/A     34  25  70 NW18G26     N/A  WCI  23
LISCO            N/A     37  25  62 W16         N/A  WCI  27
BIG SPRINGS      N/A     37  33  85 W10         N/A  WCI  30
$$

...OBSERVATIONS IN NORTH CENTRAL NEBRASKA...

CITY           SKY/WX    TMP DP  RH WIND       PRES   REMARKS
VALENTINE      MOCLDY    36  27  69 NW14G22   29.88R WCI  27
THEDFORD       CLOUDY    38  30  72 NW13      29.91R WCI  30
AINSWORTH      PTCLDY    36  29  75 NW14G21   29.87R WCI  27
O`NEILL        CLOUDY    38  35  90 W16       29.83S WCI  29
ORD            LGT RAIN  39  32  76 NW13      29.85R WCI  31
BROKEN BOW     CLOUDY    40  29  64 NW17      29.88R WCI  31
BROWNLEE         N/A     36  28  73 NW20        N/A  WCI  25
SPRINGVIEW       N/A     36  32  84 W7G16       N/A  WCI  30
BREWSTER         N/A     37  29  73 NW14        N/A  WCI  29
SARGENT          N/A     38  31  75 NW5         N/A  WCI  34
COMSTOCK         N/A     41  32  68 NW17        N/A
CHAMBERS         N/A     38  31  77 W15         N/A  WCI  29
EWING            N/A     37  34  89 CALM        N/A
$$

...OBSERVATIONS IN SOUTHWEST NEBRASKA AND FAR NORTHEAST COLORADO...

CITY           SKY/WX    TMP DP  RH WIND       PRES   REMARKS
WRAY           LGT RAIN  36  33  91 N15G23    30.01R WCI  26
HOLYOKE        DRIZZLE   37  34  87 NW13      30.00R WCI  29
IMPERIAL       CLOUDY    40  30  67 NW17      29.95R WCI  31
OGALLALA       CLOUDY    40  31  70 NW20G26   29.96R WCI  31
NORTH PLATTE   CLOUDY    38  31  76 NW10      29.92R WCI  31
MCCOOK         CLOUDY    43  31  62 NW13      29.93R
LEXINGTON      CLOUDY    40  30  65 NW10      29.90R WCI  34
PAXTON           N/A     40  34  78 NW7         N/A
BRADY            N/A     40  31  70 CALM        N/A
GOTHENBURG       N/A     41  29  61 NW6         N/A
CALLAWAY         N/A     37  30  75 NW12        N/A  WCI  29
$$

...NORTH PLATTE AREA...

CITY           SKY/WX    TMP DP  RH WIND       PRES   REMARKS
AIRPORT        CLOUDY    38  31  76 NW10      29.92R WCI  31
$$

...SOME WEATHER OBSERVATIONS FROM AROUND THE REGION...

CITY           SKY/WX    TMP DP  RH WIND       PRES   REMARKS
DENVER         MOCLDY    35  28  75 NE17      30.01R WCI  25
LARAMIE        CLOUDY    36  25  64 NW28G37   29.97R WCI  23
CHEYENNE       LGT SNOW  27  23  85 N22G35    30.00R VSB 1   WCI  13
SCOTTSBLUFF    CLOUDY    34  32  92 NW12      30.04R WCI  25
RAPID CITY     MOCLDY    33  23  66 NW31G41   29.95R WCI  19
PIERRE         CLOUDY    37  30  75 NW24G32   29.81R WCI  26
WINNER         FAIR      37  31  78 W16       29.83S WCI  28
SIOUX FALLS    LGT SNOW  32  29  88 SE12      29.81F FOG     WCI  23
OMAHA          LGT RAIN  38  27  64 SE15      29.89F WCI  29
GRAND ISLAND   CLOUDY    42  30  62 NW16G28   29.86R
KANSAS CITY    CLOUDY    37  21  52 S13       30.02F WCI  29
WICHITA        MOCLDY    42  27  55 S12       29.98F
HAYS           CLOUDY    41  16  36 W5        29.90F
LIBERAL        CLEAR     32  12  43 W9        29.94F WCI  24
GOODLAND       LGT RAIN  39  33  79 N14       29.99R WCI  31
$$



USA.gov is the U.S. government's official web portal to all federal, state and local government web resources and services.